Miscellaneous Local Product
Issued by NWS Hastings, NE

Home | Current Version | Previous Version | Text Only | Print | Product List | Glossary On
Versions: 1 2 3 4 5 6 7 8 9 10 11 12 13 14 15 16 17 18 19 20 21 22 23 24 25 26 27 28 29 30 31 32 33 34 35 36 37 38 39 40 41 42 43 44 45 46 47 48 49 50
000
AXUS43 KGID 301502
MISGRI

GID CWA HOURLY WEATHER ROUNDUP
NATIONAL WEATHER SERVICE HASTINGS NE
1000 AM CDT TUE SEP 30 2014

NOTE: "FAIR" INDICATES FEW OR NO CLOUDS BELOW 12,000 FEET WITH NO
SIGNIFICANT WEATHER AND/OR OBSTRUCTIONS TO VISIBILITY.

...SOUTH CENTRAL NEBRASKA...

CITY           SKY/WX    TMP DP  RH WIND       PRES   REMARKS
GRAND ISLAND   MOSUNNY   69  59  70 S16G24    29.81F
HASTINGS       CLOUDY    66  57  72 SW13      29.82S
KEARNEY        SUNNY     64  50  59 S10       29.82F
ORD            MOSUNNY   64  52  64 S14       29.77R
YORK           CLOUDY    63  63 100 S9        29.84S
AURORA         CLOUDY    65  60  82 S13       29.82S
LEXINGTON      SUNNY     62  53  73 SE5       29.79S
HOLDREGE       SUNNY     62  51  67 S8        29.82F
HEBRON         RAIN      63  60  89 S13       29.87S

...NEBRASKA PANHANDLE...

CITY           SKY/WX    TMP DP  RH WIND       PRES   REMARKS
CHADRON        CLOUDY    54  49  83 W26G36    29.55R
ALLIANCE       CLOUDY    52  48  86 W16       29.69R
SCOTTSBLUFF    CLOUDY    56  46  69 W13       29.72R
SIDNEY         CLOUDY    57  43  59 SW20      29.79R

...WESTERN AND NORTH CENTRAL NEBRASKA...

CITY           SKY/WX    TMP DP  RH WIND       PRES   REMARKS
VALENTINE      MOSUNNY   62  48  60 S25G31    29.60F
AINSWORTH      PTSUNNY   61  48  62 S18       29.67S
ONEILL         MOSUNNY   67  62  83 S16G23    29.73S
BROKEN BOW     SUNNY     62  50  64 S12       29.77S
IMPERIAL       SUNNY     58  48  69 SW14      29.80F
NORTH PLATTE   SUNNY     58  49  72 S10       29.77S
MCCOOK         SUNNY     59  52  77 SW8       29.82S

...EASTERN NEBRASKA...

CITY           SKY/WX    TMP DP  RH WIND       PRES   REMARKS
NORFOLK        CLOUDY    66  62  87 SE18G24   29.79F
SO SIOUX CITY  CLOUDY    61  58  90 SE7       29.86S
TEKAMAH        CLOUDY    65  59  81 SE7       29.86S
COLUMBUS       CLOUDY    66  59  77 S15       29.84R
ALBION         PTSUNNY   67  60  79 S15       29.79R
OMAHA EPPLEY   CLOUDY    67  58  72 SE10      29.87F
OFFUTT AFB     CLOUDY    67  63  87 SE9       29.87S
MILLARD        CLOUDY    66  59  78 SE6       29.87S
LINCOLN        LGT RAIN  68  60  75 S15       29.87R
NEBRASKA CITY  PTSUNNY   71  57  61 S12       29.88S
BEATRICE       CLOUDY    68  59  73 SW7       29.88S
FALLS CITY     MOSUNNY   71  61  70 S9        29.88F

...NORTHERN KANSAS...

CITY           SKY/WX    TMP DP  RH WIND       PRES   REMARKS
GOODLAND       SUNNY     58  48  69 S8        29.85F
HILL CITY      MOSUNNY   62  56  80 SE3       29.83F
NORTON         MOSUNNY   64  46  52 SE6       29.82
PHILLIPSBURG   CLOUDY    64  52  63 CALM      29.82F
SMITH CENTER   PTSUNNY   64  59  82 S8        29.84S
BELOIT         CLOUDY    63  63 100 CALM      29.85R
HAYS           CLOUDY    64  57  77 SE9       29.84S
RUSSELL        TSTM      64  61  90 S7        29.83S
CONCORDIA      LGT RAIN  63  62  97 SE6       29.86F
SALINA         RAIN      67  61  81 S8        29.87S
TOPEKA         MOSUNNY   73  62  68 S7        29.91S



USA.gov is the U.S. government's official web portal to all federal, state and local government web resources and services.